User: anonymous   Login
Location: Caltech
(34.1382°N, 118.1253°W)
Time: 09:04:16
(UTC-08:00)
Language:

SL-08 R/B - Orbit

View from above orbital plane
View from above orbital plane
View from above satellite
View from above satellite

Ground track
Ground track

The orbit data is extracted from the following two-line orbital elements,

1 27561U 02054C   17344.91950961 +.00000042 +00000-0 +20278-4 0  9990
2 27561 098.2818 117.0383 0045908 350.5199 009.5127 14.55645443797918
Epoch (UTC): 10 December 2017 22:04:05
Eccentricity: 0.0045908
inclination: 98.2818°
perigee height: 675 km
apogee height: 740 km
right ascension of ascending node: 117.0383°
argument of perigee: 350.5199°
revolutions per day: 14.55645443
mean anomaly at epoch: 9.5127°
orbit number at epoch: 79791

The dashed part of the orbit path shows where the satellite is in the earth's shadow,  

DLR